Theta_e
289 289 289 288 286 286 286 286 287 287 287 288 288 288 286 286 283 282 281 282 282 285 284 282 284 284 284 283 284 283 283 282 281 284 283 283 283 282 283 285 286 286 287 287 287 288 288 289 288 288 288 289 289 290 290 290 290 291 291 292 293 293 293 294 294 293 294 294 294 295 295 294 294 293
287 286 286 286 285 285 286 286 286 287 286 286 286 286 286 286 284 284 282 282 285 283 284 284 284 283 283 283 283 283 282 281 281 283 283 283 283 282 282 283 283 284 286 286 286 288 288 288 288 287 287 288 289 289 289 289 290 290 291 291 292 292 292 292 292 292 292 293 294 294 295 295 294 293
285 284 284 285 285 285 285 285 285 285 285 286 286 285 286 285 286 284 283 281 284 284 283 284 285 283 284 283 282 282 283 281 280 282 283 283 281 281 281 281 282 283 284 284 286 287 288 287 287 286 286 287 288 289 289 288 288 289 289 290 291 291 291 291 290 291 291 292 293 294 295 295 296 295
283 283 283 283 283 283 283 283 284 284 284 285 285 285 285 285 284 284 283 281 282 285 284 284 284 283 282 282 281 282 282 282 279 282 282 282 281 282 283 282 281 281 282 284 285 286 286 286 286 286 286 286 287 287 288 288 288 287 288 289 289 289 288 289 289 290 290 291 291 292 293 293 293 293
283 283 282 282 282 282 282 282 282 283 283 283 284 284 284 283 283 283 282 281 281 283 283 283 283 282 281 280 282 280 281 282 282 281 282 282 282 282 282 282 282 281 281 283 283 284 285 285 285 285 285 285 286 287 287 286 286 286 287 287 287 287 288 288 289 289 290 290 291 291 292 292 292 292
282 281 281 281 280 280 281 281 282 282 282 282 282 282 282 282 282 283 281 281 280 281 283 280 282 281 281 279 282 280 280 280 281 281 281 282 282 281 282 282 282 281 281 282 283 284 284 284 284 284 284 285 286 286 286 286 285 285 286 285 285 285 286 288 288 288 288 290 290 291 291 291 292 291
281 280 280 279 279 279 279 280 281 281 281 281 282 282 282 281 282 282 281 280 280 280 281 282 280 280 280 279 280 281 280 280 280 280 280 281 281 281 281 281 282 281 281 282 283 283 283 283 282 283 283 284 284 285 285 285 284 284 284 284 284 284 285 287 287 287 288 289 290 290 290 290 291 292
280 280 279 278 278 278 278 279 279 280 280 281 281 281 281 281 281 281 281 280 280 280 279 280 280 280 280 280 280 280 280 279 279 280 280 281 280 281 281 281 281 281 281 281 282 282 282 281 281 281 282 283 283 284 284 284 284 283 283 283 283 284 285 285 286 286 286 287 288 289 289 289 290 290
279 279 279 278 277 278 278 279 279 279 279 280 280 280 280 280 281 280 280 280 280 279 278 279 281 280 279 280 280 280 279 279 280 280 280 280 280 280 281 281 281 280 281 281 281 280 280 280 280 280 282 282 283 283 283 283 282 282 282 281 282 284 285 285 285 285 285 286 286 287 288 289 289 289
279 279 279 278 278 278 278 279 279 279 279 279 279 279 280 280 280 279 279 280 279 279 278 279 278 280 278 278 279 280 279 278 278 279 280 280 280 279 279 279 280 280 280 279 279 279 279 279 279 280 280 281 282 282 282 282 281 281 280 281 282 283 284 284 285 285 285 285 285 285 286 287 288 288
278 278 278 278 278 278 279 279 279 279 279 279 279 279 279 279 279 279 279 279 278 278 278 278 279 278 279 279 278 280 280 279 279 277 277 278 280 279 278 277 279 280 280 280 279 279 278 278 278 279 279 280 281 281 281 281 280 279 279 281 283 283 284 284 284 284 284 284 284 285 285 285 286 287
277 278 278 278 279 279 279 279 280 280 279 279 278 279 279 279 278 278 279 278 278 278 278 278 278 279 278 278 279 279 278 277 277 278 277 276 277 278 279 279 278 279 280 279 278 278 278 278 278 279 279 279 279 279 279 279 279 278 279 281 282 283 283 283 284 284 284 284 284 284 284 284 285 286
277 277 278 278 279 279 280 280 280 280 280 279 279 279 279 278 278 278 278 278 278 278 278 278 279 278 277 278 277 277 277 276 277 279 279 277 277 277 277 278 280 279 278 278 278 277 277 276 277 277 277 277 277 277 277 278 278 278 280 281 282 283 282 283 283 283 283 283 283 284 284 284 284 284
277 277 278 278 279 280 280 280 280 281 281 281 280 279 279 278 278 277 277 277 278 278 277 277 278 277 276 277 278 277 278 279 279 278 277 276 277 277 277 278 279 280 278 276 276 276 277 276 275 276 275 276 277 277 277 277 277 278 280 281 282 282 282 282 282 283 283 283 283 283 283 283 283 284
277 277 278 278 279 279 279 279 280 281 281 282 282 281 281 280 279 277 277 277 277 276 276 277 277 276 276 277 278 278 278 278 278 277 277 277 277 275 274 274 278 279 276 275 275 276 278 276 274 275 275 276 276 276 276 277 278 279 280 281 281 281 282 282 282 282 282 282 282 283 283 283 283 283
278 278 278 278 277 278 278 279 279 280 281 282 282 282 282 281 281 281 279 277 276 276 275 276 276 276 276 277 278 277 278 277 278 278 278 277 276 275 275 275 274 278 278 275 274 274 277 276 274 274 275 275 276 276 276 277 278 279 280 280 280 281 281 281 281 281 281 282 282 282 282 282 283 283
279 279 278 277 277 277 279 279 279 279 279 280 282 282 282 282 282 282 282 282 279 279 277 276 276 277 277 277 277 278 278 279 277 278 277 277 277 276 275 276 276 278 278 275 274 273 276 276 274 274 275 275 275 275 276 276 277 279 279 279 279 280 280 280 281 281 281 281 281 282 282 282 282 282
279 279 279 279 278 278 277 278 278 278 278 279 279 280 280 281 282 283 283 282 282 281 278 277 275 277 278 277 278 279 279 278 277 277 276 277 276 275 275 277 277 278 278 274 272 270 274 275 274 273 275 276 275 275 275 276 277 278 278 278 279 279 280 280 280 280 280 281 281 281 281 281 281 282
279 280 280 279 279 279 278 278 278 278 278 279 279 279 279 280 281 282 282 282 281 281 280 279 278 278 278 278 278 279 279 279 279 279 278 277 277 276 277 276 276 276 277 275 272 268 273 275 273 273 274 275 274 275 275 276 276 277 278 278 279 279 279 279 279 279 280 280 280 280 280 281 281 281
280 280 280 279 278 278 279 280 281 280 279 279 277 277 277 278 279 280 282 284 284 283 282 281 280 280 279 280 280 280 279 279 280 279 279 278 276 274 272 272 274 273 276 276 272 269 270 274 272 272 274 274 273 274 274 275 276 276 276 277 278 278 278 278 278 279 279 279 279 280 280 280 281 280
280 279 279 279 278 279 279 280 282 283 282 279 277 277 276 276 277 277 279 281 283 284 284 284 284 284 284 283 283 283 283 281 280 278 276 275 275 272 270 271 272 272 275 274 273 271 269 272 272 271 272 273 272 272 273 274 275 275 275 275 276 277 278 278 278 278 278 278 278 279 279 280 280 279
280 280 280 280 279 279 280 281 282 282 282 279 278 277 276 276 276 276 277 277 278 281 282 283 284 284 285 285 285 285 284 284 283 279 274 275 275 272 272 270 271 273 274 272 274 270 269 271 271 270 271 271 272 272 273 273 273 274 274 274 275 276 276 277 277 277 277 277 278 278 279 279 279 276
283 282 282 282 281 280 281 282 282 282 281 280 279 278 277 276 276 277 278 277 276 276 276 277 279 279 281 281 282 282 284 284 283 282 279 276 274 271 272 272 272 270 272 274 274 268 268 270 270 270 267 267 271 272 272 272 272 272 272 272 272 274 275 276 276 275 275 276 276 277 278 278 278 275
284 283 282 283 284 283 283 283 283 283 283 280 279 279 278 277 276 279 278 278 278 277 277 276 277 277 278 278 279 280 280 281 281 281 281 278 275 273 272 272 272 270 272 271 272 269 269 270 268 271 268 265 265 270 271 271 271 271 271 271 271 273 274 274 273 274 274 275 276 276 277 277 277 275
285 284 284 283 283 284 284 284 284 284 283 283 281 280 278 279 279 281 279 278 279 277 276 275 275 275 276 276 276 277 277 277 278 279 280 278 276 275 272 272 271 270 272 272 273 270 267 269 267 268 267 267 267 266 269 269 270 270 271 271 270 271 271 271 272 271 273 274 274 275 275 277 278 276
283 283 283 283 283 283 284 284 284 284 284 284 282 281 283 283 283 281 281 280 280 278 277 276 276 275 275 275 275 275 276 276 277 278 278 277 275 276 275 273 271 270 271 272 274 270 268 266 267 266 267 266 265 267 266 267 269 270 271 271 270 270 270 270 270 270 271 271 271 272 273 276 276 277
282 283 283 283 283 283 283 283 284 284 284 283 283 284 284 284 284 283 282 281 281 279 278 276 275 275 276 274 274 274 274 275 276 276 277 276 275 274 274 274 274 273 273 271 272 271 269 267 268 266 265 266 265 265 265 264 266 270 269 270 270 270 270 270 269 269 270 270 271 273 274 274 275 275
283 282 282 282 282 282 283 283 283 283 283 282 283 284 284 284 283 282 281 281 280 280 279 276 275 275 276 275 274 274 275 275 276 276 276 275 274 273 272 273 272 272 272 270 270 270 269 267 267 267 266 265 263 263 263 266 267 267 266 268 269 269 270 269 269 269 270 270 270 270 271 270 271 272
283 283 283 283 283 283 283 283 283 283 283 283 283 283 283 282 281 281 280 280 279 278 278 278 278 277 275 276 276 276 276 276 276 275 274 274 272 272 272 271 270 270 270 269 269 269 269 268 266 267 266 265 264 264 264 263 265 265 266 265 265 268 268 269 269 269 269 269 269 269 269 270 270 271
282 283 282 282 281 281 281 280 279 279 279 280 280 280 280 280 280 280 279 279 278 277 278 278 277 278 278 278 278 278 276 274 274 274 272 271 268 268 267 266 267 267 267 268 268 268 268 268 268 267 265 265 265 263 264 263 263 265 266 265 265 267 268 268 268 268 268 268 268 268 269 270 270 271
280 280 279 278 278 278 278 277 277 277 277 277 277 278 278 279 279 279 278 278 277 277 277 277 278 278 279 279 277 275 274 274 273 272 270 268 267 266 266 265 265 266 266 266 266 267 267 267 267 267 264 264 265 264 264 264 263 264 264 265 265 263 265 267 267 267 268 268 268 268 269 269 270 271
277 276 276 275 276 276 275 276 276 276 276 277 277 277 277 277 278 278 279 278 278 277 278 277 277 277 277 275 274 272 271 271 270 269 269 267 267 266 265 264 264 265 265 265 265 265 266 266 266 267 267 265 263 264 265 264 263 263 264 265 265 265 266 265 266 267 268 267 266 266 267 268 269 270
276 276 276 276 276 276 275 275 276 276 276 276 277 276 276 276 277 276 276 275 275 276 276 275 275 275 275 275 273 271 270 269 269 269 267 267 266 265 265 263 265 265 265 265 265 264 265 265 266 266 267 267 266 265 263 262 263 264 263 264 264 264 265 266 267 267 267 266 265 265 266 267 269 270
277 277 276 276 276 275 275 275 275 275 276 276 276 276 277 277 277 276 276 276 276 276 275 275 274 274 274 274 271 270 269 269 269 267 267 265 266 264 264 263 264 265 265 265 265 265 265 264 265 265 265 264 265 264 264 262 262 263 264 264 264 263 265 266 266 267 266 265 265 264 264 266 268 269
276 276 275 275 276 275 275 275 275 275 275 275 275 275 276 276 276 276 276 276 276 275 274 274 274 274 273 272 272 270 270 269 268 266 266 265 265 264 264 264 264 265 265 264 264 265 265 264 264 263 263 262 262 262 265 264 262 262 263 264 264 263 264 265 266 265 266 265 265 264 264 265 266 268
278 277 275 275 275 276 275 275 275 275 275 275 275 275 275 275 275 275 275 275 275 274 273 273 273 273 272 272 271 270 270 268 268 267 265 265 264 264 264 264 264 265 265 265 265 265 264 264 263 262 261 262 261 261 262 267 266 263 262 262 264 264 264 265 265 265 264 264 265 264 263 263 264 267
277 277 276 274 273 273 272 272 272 273 273 272 273 273 273 273 274 274 274 275 273 273 273 273 272 272 272 271 270 269 269 268 267 267 266 265 265 264 263 263 263 264 264 264 265 264 264 263 263 262 261 260 260 259 262 265 267 269 265 263 263 264 264 264 263 263 264 264 264 265 264 264 264 266
273 272 272 271 270 270 270 270 269 269 269 270 270 270 270 271 271 271 272 272 272 272 272 271 271 271 270 270 269 268 268 268 267 266 266 265 264 263 263 263 264 264 264 264 264 263 264 263 262 262 261 260 259 260 260 264 263 264 267 265 263 263 263 262 261 261 262 264 264 265 265 264 265 266
272 271 271 270 269 270 269 269 268 268 268 268 268 268 268 268 269 269 269 270 270 270 270 270 270 269 269 268 268 267 267 266 266 266 265 265 265 264 264 264 263 264 264 263 264 263 263 262 262 262 262 261 260 261 262 261 261 263 265 267 265 262 262 262 261 262 262 263 264 265 265 266 267 270
269 270 269 269 268 268 268 268 267 267 267 267 266 266 266 266 266 266 267 267 268 268 268 268 268 268 267 268 267 267 266 265 265 265 265 265 264 264 263 263 263 263 263 262 262 262 262 262 262 262 262 263 263 262 261 261 261 262 262 263 267 265 263 263 262 262 262 263 264 263 262 264 263 265
267 267 267 267 266 265 266 265 266 265 265 265 264 265 265 264 264 264 265 265 265 264 265 265 266 265 265 265 265 265 264 264 264 264 264 263 263 263 262 262 261 262 261 261 261 262 262 263 264 265 263 263 262 261 260 258 258 259 261 263 266 267 267 267 264 263 262 263 263 262 261 261 262 264
264 264 264 264 263 263 263 263 263 263 262 263 262 262 262 262 262 263 263 263 262 262 263 263 263 263 264 264 264 264 263 262 262 262 263 262 262 262 262 261 261 261 261 260 261 262 264 263 262 262 262 261 260 258 257 258 258 259 261 262 263 265 267 267 268 267 265 264 262 261 261 262 264 262
262 262 262 262 261 261 261 261 261 261 261 261 260 260 260 260 261 261 261 261 261 261 261 261 262 262 262 262 262 262 262 261 261 261 261 261 261 260 260 260 261 261 261 261 262 262 263 262 262 261 261 260 259 259 257 258 258 259 259 260 261 263 263 265 266 267 267 268 268 266 265 263 262 260
260 260 260 260 259 259 259 259 259 259 259 259 259 259 259 259 259 260 260 260 260 259 260 260 260 260 260 260 261 261 261 261 261 260 260 260 260 260 259 259 259 259 260 260 260 260 261 261 261 260 259 258 259 258 257 257 257 258 259 260 260 260 260 262 262 264 266 267 267 268 268 268 268 268
259 259 258 259 259 258 258 258 258 258 258 258 258 258 258 258 258 259 259 259 258 258 258 258 259 259 259 259 259 259 260 261 260 260 260 259 259 259 259 259 258 258 258 259 258 258 259 259 260 259 258 258 258 258 258 258 257 258 258 258 258 259 260 260 260 260 261 262 266 267 268 268 268 269
Wind_Speed
4 4 3 4 4 3 3 3 3 2 2 2 2 1 2 3 5 3 6 7 6 6 8 5 6 7 5 4 3 3 3 0 3 4 4 4 4 5 9 9 8 9 9 10 10 11 12 13 14 16 16 18 19 20 21 22 23 24 25 25 26 27 27 26 27 28 29 30 31 31 32 32 32 31
3 4 4 4 4 3 2 3 3 2 2 2 2 2 1 2 4 5 5 4 3 4 6 5 4 6 6 4 3 2 3 1 4 4 5 5 4 8 10 8 7 8 9 10 11 12 12 13 14 15 16 17 18 19 21 21 22 23 24 25 26 26 26 26 27 27 28 30 30 30 30 32 34 33
4 5 4 3 3 3 3 3 2 2 2 2 2 1 1 2 3 4 4 3 1 4 3 5 3 5 5 3 3 3 4 2 3 5 4 5 6 10 8 6 6 8 9 11 11 11 12 13 13 14 16 17 18 19 20 21 22 22 23 24 25 25 25 25 26 27 28 29 30 30 30 31 32 34
4 4 4 3 3 3 3 3 2 2 1 1 2 2 2 2 3 3 4 5 5 3 2 3 4 4 3 3 4 4 3 3 7 4 5 5 7 6 4 5 6 7 10 11 11 11 12 12 13 14 16 17 18 19 20 21 21 21 22 23 23 24 24 24 25 27 27 29 30 30 29 30 32 32
4 4 4 4 3 3 4 3 3 2 2 2 1 1 2 3 3 4 4 5 6 2 3 2 3 4 3 4 5 4 4 4 3 4 4 5 5 5 5 5 6 7 9 11 11 11 12 11 12 14 16 17 18 18 19 20 20 20 21 21 22 22 23 24 25 26 27 28 29 29 30 31 31 31
3 3 4 4 4 3 3 3 3 3 3 3 3 3 3 3 3 3 3 5 4 6 3 3 3 3 4 4 5 4 4 5 4 5 4 4 4 5 5 6 6 7 8 10 11 11 11 11 12 14 16 17 17 18 18 19 19 19 20 20 20 21 21 23 24 25 26 27 29 29 29 31 31 32
5 5 4 4 4 2 3 3 2 2 2 2 3 4 3 4 3 3 3 3 5 6 6 1 2 4 4 5 4 4 4 4 5 5 5 4 4 4 6 7 6 7 8 10 11 12 11 10 11 13 15 16 17 17 17 18 18 19 19 20 20 20 21 23 24 25 25 26 27 28 30 29 31 32
6 6 5 4 4 4 3 3 2 2 2 3 3 4 3 4 4 3 3 4 5 5 6 5 4 4 4 5 4 4 4 5 5 5 5 5 6 7 7 8 7 7 9 10 12 12 11 10 10 12 15 16 16 17 17 17 18 19 19 19 19 20 21 23 24 24 24 26 26 28 29 29 30 31
6 6 4 5 5 5 3 3 3 3 4 3 3 4 4 4 3 2 3 4 4 5 7 7 5 4 5 5 5 5 5 5 5 6 6 6 7 7 8 7 7 10 13 14 14 13 10 9 9 11 15 17 16 16 16 17 17 18 18 18 18 20 22 23 23 24 24 25 26 27 28 29 30 30
5 5 5 5 5 5 5 4 4 4 5 4 5 5 4 4 3 3 4 4 5 6 8 7 7 5 5 5 6 5 4 5 6 6 6 7 7 8 7 7 6 6 6 6 6 8 8 7 9 11 13 16 16 16 16 16 16 16 17 17 18 21 22 22 23 23 24 25 25 26 27 28 29 29
5 4 4 5 5 5 5 4 5 5 5 4 5 5 5 4 4 4 5 5 6 7 7 8 8 7 6 5 7 4 4 5 6 7 7 8 6 7 7 7 7 6 7 10 11 9 6 8 10 11 12 16 16 16 15 16 16 15 16 17 19 21 22 22 22 23 24 24 25 26 26 27 28 29
4 4 4 4 4 5 4 5 4 4 5 4 5 5 4 4 5 6 5 5 6 6 7 8 7 6 6 5 6 4 4 6 8 7 7 8 7 6 7 8 8 7 7 7 5 7 8 10 11 13 14 16 16 15 14 14 14 14 15 17 20 21 21 22 22 23 24 24 24 26 26 26 27 29
4 4 4 4 5 5 6 6 4 4 4 4 4 5 5 6 6 5 5 5 5 6 6 8 7 6 6 7 6 6 7 8 8 5 5 6 7 7 9 9 9 8 7 6 5 5 6 6 7 6 6 7 9 11 13 11 12 12 15 18 19 20 21 22 22 23 23 23 24 25 26 26 27 28
4 4 4 4 7 7 8 8 10 11 11 11 8 6 6 5 5 5 6 6 6 6 7 9 6 6 7 8 8 8 9 7 6 7 7 8 8 7 10 10 9 7 6 5 6 5 5 6 7 7 7 7 7 6 6 6 10 14 17 17 18 19 20 21 22 23 23 24 24 25 25 26 26 27
5 5 5 5 6 7 8 9 13 13 15 15 15 15 13 9 7 6 6 7 6 7 8 7 6 7 9 11 8 8 8 7 8 7 7 8 7 7 8 9 3 5 5 4 6 8 5 7 7 7 7 7 7 7 7 10 15 16 15 16 17 19 20 21 22 22 23 24 24 25 26 25 26 27
5 5 5 5 4 6 8 7 7 11 15 16 16 17 17 17 18 16 11 7 6 9 9 8 8 7 9 10 7 8 7 8 7 8 8 9 9 8 8 8 7 1 2 4 6 10 5 6 7 8 7 7 7 7 9 12 16 16 14 14 16 18 20 21 22 22 23 23 24 25 25 26 26 26
5 5 5 5 5 5 10 8 7 7 8 13 17 18 18 19 20 21 22 20 13 7 7 8 9 11 10 10 10 9 8 7 9 8 8 10 9 9 9 9 7 6 0 4 7 10 7 5 8 9 7 6 6 6 9 12 14 15 12 13 16 19 20 21 21 22 23 23 24 24 25 25 25 26
6 7 6 6 6 6 7 7 8 8 9 8 9 10 12 13 16 20 23 22 24 20 12 9 12 15 10 12 10 7 8 9 9 9 10 9 9 9 10 10 10 7 5 6 6 9 8 4 5 7 7 6 6 6 8 12 14 15 11 11 16 19 20 20 21 22 22 23 23 24 24 25 25 25
7 8 7 8 7 6 7 7 8 8 9 8 7 7 9 11 13 12 13 14 14 14 14 15 16 15 11 13 12 10 9 11 10 10 10 8 8 8 8 9 9 9 8 9 6 7 8 3 7 9 6 6 6 6 8 12 13 14 11 11 18 20 20 20 20 21 22 22 23 23 23 24 25 24
7 7 8 7 8 8 8 10 16 14 9 8 10 10 11 10 11 12 13 14 14 14 14 14 14 12 12 13 12 10 9 8 8 7 8 9 6 5 8 10 6 8 7 8 8 7 10 6 7 10 7 6 8 6 7 11 13 12 9 12 20 21 20 19 20 20 21 22 22 22 23 24 24 24
6 6 7 8 8 9 10 12 16 17 15 10 12 12 14 12 9 12 10 16 22 23 24 25 24 23 20 19 20 20 21 14 9 9 11 14 9 8 11 10 7 8 5 7 8 6 9 7 6 9 8 7 9 9 8 6 7 9 8 12 18 21 19 19 20 21 21 21 21 21 23 23 23 25
5 8 13 12 10 10 11 11 15 16 14 11 12 11 14 16 13 12 7 6 12 22 25 27 27 28 28 28 28 26 24 23 18 13 15 11 8 11 10 10 7 6 5 6 6 4 8 6 6 7 8 9 8 7 6 4 3 5 9 11 16 19 17 19 20 20 19 20 20 21 22 22 22 15
6 8 12 18 15 13 12 14 16 17 15 11 12 9 10 12 15 13 4 8 7 7 8 12 14 16 20 20 18 20 27 27 23 18 12 7 12 11 11 11 9 10 9 6 9 5 5 4 5 5 7 8 5 3 3 2 3 6 6 7 9 14 17 18 18 17 18 18 19 20 21 21 19 12
9 7 8 11 16 19 20 19 20 19 20 13 10 9 10 12 15 7 5 11 6 8 10 10 10 12 11 11 12 12 14 16 18 17 16 7 10 8 8 10 10 10 5 5 9 4 3 3 6 3 3 5 6 1 3 7 5 6 6 7 7 11 15 15 13 15 15 17 19 19 19 19 18 12
11 7 6 5 11 17 19 19 20 20 20 20 13 12 12 12 14 13 10 10 11 9 7 7 8 9 8 9 9 10 11 11 11 12 12 10 8 8 8 12 8 8 5 6 9 4 3 2 5 4 5 5 8 9 7 6 7 6 7 7 8 9 9 10 9 9 11 15 16 18 17 18 20 15
10 7 6 6 7 14 17 19 19 20 20 21 17 16 20 22 22 16 14 13 11 10 8 7 8 8 8 9 10 10 11 10 10 10 10 8 7 8 7 9 8 7 5 7 11 5 3 5 6 6 6 6 10 8 11 8 5 7 5 6 8 8 8 10 10 9 9 9 9 11 14 19 17 18
7 6 7 7 8 10 13 15 17 18 20 19 17 23 24 24 25 21 15 14 13 12 11 10 8 10 11 10 9 9 9 8 10 9 10 9 7 7 7 5 7 7 2 6 7 6 5 5 4 6 7 6 9 9 8 9 7 3 8 7 8 8 8 9 9 9 9 9 10 16 16 15 16 17
7 6 7 5 4 9 12 15 17 18 19 15 21 22 23 23 21 14 13 12 11 10 10 10 9 10 11 11 7 8 8 8 7 8 9 7 7 8 5 5 6 5 4 5 6 6 6 6 6 6 9 9 10 10 10 7 7 8 9 9 8 8 6 7 9 9 8 9 10 9 9 9 9 10
11 12 14 14 14 16 17 18 18 16 16 16 17 19 20 19 12 11 11 11 10 12 12 11 10 8 7 7 8 6 6 6 5 6 7 5 6 6 7 5 3 4 4 4 5 6 7 7 7 6 8 8 8 10 9 11 8 9 8 10 10 5 7 8 8 8 9 9 9 9 9 10 10 10
17 17 15 14 12 10 8 6 5 6 7 12 15 17 16 9 9 10 12 12 12 13 12 10 10 9 5 5 6 5 3 5 8 7 6 7 5 5 5 4 5 4 3 3 5 6 6 7 9 9 8 8 8 9 9 10 11 7 8 8 10 11 5 6 7 8 9 8 9 9 9 9 10 10
6 6 5 6 8 8 10 10 11 10 10 9 8 6 7 7 9 9 9 9 9 11 12 12 12 14 15 10 2 2 3 5 5 2 4 4 4 3 5 5 7 4 5 5 5 5 6 6 8 9 10 9 8 9 9 9 11 10 8 7 7 9 9 9 8 7 7 9 9 10 10 9 9 9
4 4 4 4 3 2 3 3 2 3 3 5 5 5 5 6 7 8 12 13 10 9 8 7 8 8 7 4 4 1 3 4 5 2 4 5 5 3 4 5 8 5 4 4 5 7 8 8 8 8 11 10 9 8 8 9 10 10 9 8 8 8 8 9 9 8 8 9 9 9 9 9 9 9
3 2 2 3 2 3 4 4 6 6 6 6 6 6 6 6 7 7 7 8 9 9 9 10 11 12 11 11 2 1 3 4 4 3 4 6 6 3 5 8 8 5 6 5 5 5 7 7 9 9 9 9 9 8 7 9 9 8 8 8 7 7 7 8 9 9 9 9 10 9 10 9 9 9
6 6 6 6 6 7 6 7 7 7 7 7 8 7 8 7 8 8 8 8 9 9 9 9 10 9 8 8 1 3 4 4 3 3 5 5 5 5 8 7 9 7 5 5 4 4 5 5 5 6 7 8 9 9 9 10 10 7 7 7 7 8 7 7 9 9 9 9 10 10 9 9 8 8
6 6 6 6 6 6 7 7 7 6 6 7 7 7 7 8 8 8 7 7 7 7 7 7 8 8 7 7 6 5 5 4 5 3 4 4 5 7 7 8 9 6 6 5 5 5 4 5 6 6 6 7 8 9 14 12 8 8 6 7 6 8 7 7 8 9 10 10 7 9 10 10 10 8
5 5 5 6 6 6 5 5 5 5 5 6 6 7 7 7 7 7 7 7 7 7 8 7 7 7 7 7 7 7 6 3 7 5 5 6 6 7 7 9 9 8 6 6 5 4 5 5 5 5 6 7 7 9 5 19 19 6 6 7 6 6 6 7 8 9 9 8 7 8 9 11 11 9
4 3 4 4 4 4 3 4 4 5 5 5 5 6 6 7 6 6 7 7 7 7 8 8 7 7 6 6 6 6 6 6 6 6 6 7 6 7 7 9 8 9 10 8 4 4 4 5 6 5 5 6 8 9 7 2 13 15 8 9 7 6 6 7 8 9 9 8 8 8 9 10 11 11
2 2 1 1 2 2 2 2 3 3 3 4 4 4 5 5 6 6 6 7 7 7 7 7 6 6 6 5 5 6 6 6 6 6 6 6 6 6 8 8 8 9 9 6 5 5 5 7 6 6 6 7 7 9 9 5 3 4 5 5 7 6 5 8 9 9 9 8 8 8 8 10 11 11
1 2 3 2 2 3 3 3 3 4 4 4 4 4 5 5 5 5 5 6 6 6 6 6 6 6 6 6 5 6 6 6 6 6 6 6 6 7 7 7 7 7 8 8 7 5 5 7 6 6 6 7 8 7 8 9 9 6 8 13 8 8 7 8 9 9 9 9 8 8 8 9 12 18
1 1 1 2 2 2 3 3 4 4 4 4 4 4 4 5 5 5 6 6 6 6 6 6 6 6 6 6 5 6 6 6 6 6 6 6 6 5 5 5 6 6 7 8 7 7 6 5 6 5 5 6 5 3 2 5 8 6 9 13 17 13 10 8 9 9 10 9 9 8 9 8 9 8
0 0 0 1 2 1 2 2 2 3 3 3 3 4 4 4 5 5 5 6 6 6 6 6 6 6 5 5 5 5 6 6 6 6 6 6 6 6 5 5 6 6 6 8 7 7 8 6 1 4 4 3 2 1 5 6 8 5 6 7 6 7 12 12 11 10 10 9 9 9 8 8 9 9
0 0 1 1 1 1 1 1 2 2 2 2 3 3 3 4 4 7 6 5 4 4 5 5 5 5 5 5 5 5 5 6 5 6 6 6 6 6 6 5 6 6 6 8 7 7 6 2 3 1 2 2 3 4 7 9 9 6 6 6 6 8 10 12 15 15 12 10 9 8 8 8 6 8
0 0 1 1 1 1 1 1 2 2 2 2 2 3 3 4 3 3 3 3 3 3 3 4 4 4 4 4 4 5 5 5 5 5 5 5 5 6 6 6 6 6 7 8 7 7 6 3 2 2 3 4 5 5 7 7 6 7 7 7 7 5 5 9 12 15 16 17 16 13 9 7 7 8
0 1 1 1 1 1 1 1 2 2 2 2 2 2 2 2 3 3 3 2 3 3 3 4 4 4 4 4 4 4 4 4 4 5 5 5 5 6 6 6 6 7 7 7 7 7 6 5 4 4 4 5 4 5 7 6 7 6 7 7 7 7 8 6 5 8 10 11 10 9 11 11 11 14
1 1 1 1 1 1 1 1 2 2 2 2 2 2 3 2 3 3 3 2 2 2 3 3 4 4 3 4 4 4 4 5 5 4 4 4 5 5 5 5 6 6 6 6 7 7 6 5 4 3 4 5 5 6 7 6 7 6 6 6 8 7 6 6 6 6 6 6 5 6 7 10 11 12
Wind_Direction
109 107 103 104 104 97 96 97 97 90 92 100 116 128 215 251 258 221 227 216 200 177 193 192 185 191 205 199 214 218 254 316 305 284 278 285 283 321 328 330 333 333 335 336 325 315 317 330 341 344 341 337 334 332 332 330 330 331 333 334 334 334 333 333 331 330 328 325 325 326 324 323 320 321
107 99 88 92 109 107 111 98 87 102 107 125 142 166 205 258 249 264 264 271 186 159 180 213 162 179 194 209 217 234 256 122 290 277 275 279 290 317 314 310 319 325 327 323 312 310 322 335 340 339 335 332 332 331 329 328 328 331 333 333 332 332 332 331 331 328 325 324 324 323 323 322 322 322
113 106 109 108 108 111 102 106 108 110 126 137 149 150 200 222 252 251 261 262 214 144 197 181 135 161 179 191 240 233 235 206 280 272 274 274 306 305 289 281 302 316 314 307 305 314 327 334 336 333 329 329 331 329 327 326 328 331 332 331 331 331 330 330 327 326 325 323 324 325 324 323 322 323
103 125 133 139 136 131 121 124 135 139 134 149 165 171 202 217 236 240 244 251 259 149 189 138 148 159 181 213 236 250 238 208 221 269 274 289 298 285 291 288 283 296 298 301 310 320 326 329 330 327 326 328 328 326 324 326 329 331 330 329 329 328 327 326 325 324 324 323 323 325 324 323 322 322
128 148 144 142 135 142 150 152 150 154 163 173 179 175 214 226 218 230 237 244 260 197 143 178 170 155 193 248 209 232 251 255 255 256 273 285 292 294 294 298 280 267 286 301 310 314 317 321 324 324 326 326 324 322 323 326 328 328 328 328 327 326 325 323 323 324 324 322 322 325 328 325 323 321
147 144 152 151 150 159 157 147 162 168 174 189 187 195 215 231 225 237 238 250 251 262 166 175 174 186 193 246 217 218 253 271 279 279 279 282 281 288 292 286 276 262 277 295 299 302 307 313 319 323 324 321 320 320 322 324 325 326 326 325 325 324 321 321 322 323 323 323 324 325 324 322 322 324
151 156 162 162 153 153 152 155 171 167 185 199 216 213 218 231 234 225 243 251 256 263 267 231 219 228 207 230 232 232 249 266 271 274 273 272 279 272 272 271 270 265 268 277 285 290 296 305 315 319 317 315 315 317 319 322 323 323 324 324 323 320 318 319 321 322 323 323 323 324 323 324 324 324
162 168 160 163 159 154 161 171 180 185 200 211 225 224 229 234 233 232 224 246 259 271 271 255 232 238 240 241 230 238 252 259 262 264 270 266 261 259 253 257 262 262 259 261 271 278 284 295 308 311 309 309 312 313 317 319 321 321 321 322 319 317 317 319 321 322 322 322 323 323 323 324 324 323
161 167 165 151 154 160 166 178 195 196 202 217 227 232 228 230 230 216 233 238 249 256 258 265 250 233 248 256 258 252 263 269 265 257 255 257 257 257 255 254 259 264 259 255 256 265 270 282 293 298 301 304 306 309 313 316 318 318 320 319 316 315 317 319 320 321 321 322 322 322 323 323 323 322
167 162 155 153 156 169 184 195 191 202 208 212 228 234 234 230 228 231 235 238 240 247 256 261 268 248 243 256 250 233 237 267 278 274 261 253 246 247 255 250 249 247 244 239 237 241 251 261 281 287 292 293 297 302 308 312 314 316 317 314 313 315 317 318 320 320 321 321 322 322 323 323 322 322
161 157 154 156 167 182 198 199 203 204 210 217 230 230 235 232 227 237 236 233 236 243 254 259 255 261 255 249 265 254 239 256 260 268 278 271 249 236 244 260 255 244 245 243 233 234 250 275 281 275 273 281 286 292 301 307 309 312 312 311 313 315 317 318 319 320 321 321 321 322 322 323 323 322
159 160 166 173 185 198 206 211 218 204 218 211 228 230 221 226 226 238 241 236 236 243 250 254 257 254 260 257 251 249 241 258 255 235 240 262 271 266 258 257 260 253 253 253 240 227 236 257 265 263 256 259 268 279 291 294 300 302 305 310 313 314 317 317 318 320 321 321 321 322 322 323 323 322
155 167 180 194 201 208 218 222 223 216 206 216 231 225 208 221 228 234 239 239 238 248 252 258 253 252 254 252 251 245 236 235 249 251 237 257 265 272 271 261 248 242 249 258 247 242 239 256 271 269 256 251 258 271 277 285 291 298 306 310 311 315 317 317 318 320 321 321 321 321 322 323 323 322
163 182 188 204 207 209 218 228 235 237 235 232 235 239 219 207 216 222 226 235 236 243 250 251 247 248 252 251 239 243 243 245 250 250 243 255 265 265 266 267 246 227 237 255 261 255 243 244 262 264 251 249 247 256 273 290 303 304 306 308 312 316 317 318 319 320 321 321 320 320 321 322 322 321
175 188 204 214 211 217 227 233 237 239 241 240 238 238 239 230 209 207 221 231 226 232 246 251 238 242 254 254 244 241 249 240 239 243 245 253 260 259 266 272 253 185 187 249 276 272 242 219 246 261 253 244 245 249 257 284 301 305 305 309 315 317 318 318 320 320 320 321 320 320 321 322 321 321
169 188 199 210 196 209 215 215 226 238 244 245 245 242 240 239 237 232 226 224 225 229 236 246 235 238 244 254 240 240 234 240 238 239 240 244 245 252 255 262 267 203 140 290 288 283 262 216 242 261 252 240 240 245 255 274 294 302 304 308 314 318 319 320 321 321 321 321 320 320 320 320 321 320
177 186 195 205 210 208 216 221 226 234 246 245 246 248 248 247 243 240 238 235 234 241 242 241 250 236 240 252 246 231 230 234 246 243 243 240 240 245 255 261 272 263 294 308 286 284 278 227 247 258 254 243 247 247 251 261 287 295 297 304 313 319 321 322 322 322 321 321 321 321 320 320 320 319
190 200 201 211 221 202 199 218 221 228 240 247 246 243 243 245 245 242 240 238 238 238 241 242 246 250 227 241 249 238 223 223 232 236 240 239 239 240 249 268 273 275 273 276 295 286 281 229 239 261 270 254 251 248 261 265 277 285 286 301 316 320 320 321 322 322 322 322 322 321 320 319 319 319
198 205 209 218 228 213 199 206 206 218 230 233 236 238 241 245 248 246 238 230 230 231 232 237 241 251 241 241 247 243 233 235 237 234 241 240 248 259 276 276 265 269 259 254 248 261 285 280 279 274 279 275 262 264 269 261 263 270 271 300 320 322 320 320 320 322 322 322 322 320 319 319 319 319
213 210 213 218 227 224 217 216 216 219 223 232 242 242 247 247 249 248 240 236 232 228 228 231 237 241 241 239 241 237 234 238 241 247 254 258 234 237 257 260 256 254 253 231 218 253 276 280 282 284 289 280 272 268 272 266 253 253 260 310 318 317 318 319 319 320 321 322 321 320 319 319 319 321
204 207 209 220 227 235 237 226 222 227 224 238 243 247 253 254 249 251 238 236 243 244 242 244 246 248 248 245 245 246 243 237 239 250 253 247 230 236 252 260 251 249 237 205 217 245 278 289 289 291 291 289 283 276 266 257 238 233 251 293 304 311 314 316 318 319 318 319 320 320 319 319 321 322
223 224 224 223 231 235 243 233 232 235 229 238 244 245 253 260 256 251 223 224 240 244 249 253 255 257 259 258 258 257 252 249 246 238 238 237 229 233 240 249 247 266 224 206 194 235 256 295 290 292 297 291 265 244 245 233 215 233 265 282 298 304 309 314 316 316 315 317 318 320 320 319 323 323
220 228 229 233 230 236 244 243 242 239 231 235 242 233 244 251 255 253 163 231 237 239 238 248 253 257 259 260 260 260 259 258 253 246 239 208 229 225 238 245 258 267 257 198 182 210 264 277 291 317 316 302 290 235 254 188 286 286 285 288 294 298 310 314 312 311 312 315 316 317 319 320 324 321
241 218 224 230 232 235 241 244 246 243 235 232 238 234 237 245 251 266 245 253 248 256 247 251 249 255 262 262 262 265 263 261 257 252 250 199 206 218 228 235 230 239 239 148 172 185 267 271 280 283 258 294 302 152 277 288 283 289 291 288 286 305 312 313 311 309 308 311 315 316 318 320 322 320
251 240 230 219 219 231 239 243 246 245 242 238 240 240 236 241 262 279 272 267 248 247 247 247 251 255 255 253 252 251 251 251 250 245 242 231 205 210 215 236 225 233 233 170 165 133 223 248 267 264 264 250 264 288 279 282 290 285 292 286 292 305 312 313 312 309 310 311 312 314 315 319 321 320
255 251 248 247 214 223 238 242 246 249 249 249 252 253 256 264 271 274 274 276 276 264 252 241 243 243 242 238 239 237 238 235 230 235 236 226 212 216 218 219 220 231 215 170 180 178 197 260 247 255 261 258 271 267 290 288 279 284 281 294 296 299 309 309 310 308 312 311 311 313 314 316 317 318
253 260 259 253 247 244 247 249 252 256 260 263 263 267 272 275 279 280 276 273 269 264 258 254 241 247 253 246 233 231 229 226 233 235 234 228 209 216 229 228 238 244 235 149 191 187 194 240 222 225 253 262 276 287 273 285 296 300 297 297 299 301 300 304 308 308 309 310 307 311 312 312 316 317
265 269 269 276 254 259 264 268 273 276 276 276 277 278 280 283 284 282 281 278 274 268 257 245 249 254 252 252 240 237 233 233 220 226 240 230 223 226 219 224 224 227 199 175 177 184 199 225 245 242 248 253 264 273 288 281 280 294 302 304 297 295 293 310 305 299 303 311 309 312 315 317 319 318
270 279 285 293 294 291 289 289 290 288 288 291 290 289 288 287 283 280 276 275 273 268 265 261 261 257 245 235 240 238 245 236 236 240 242 225 228 237 247 246 227 207 188 189 187 194 205 219 236 243 238 239 246 265 270 283 294 294 299 305 302 303 310 297 290 299 308 306 306 310 313 314 314 313
283 287 294 301 309 312 314 322 314 308 302 305 301 297 293 284 276 277 276 270 268 267 268 269 270 273 266 248 250 259 221 238 248 227 213 219 222 212 224 235 242 206 212 194 203 203 210 230 241 243 246 243 240 255 262 278 284 287 291 287 291 300 281 304 305 302 302 306 307 308 306 305 304 309
282 295 303 300 299 295 294 290 284 283 288 291 290 289 283 279 276 272 268 270 272 272 272 272 271 275 277 286 314 269 245 257 253 206 200 206 213 184 222 232 248 230 209 197 211 213 218 229 236 239 244 249 246 242 256 263 274 285 280 280 287 289 306 308 297 294 301 303 307 303 301 302 304 301
277 280 287 286 276 279 284 284 279 274 278 278 285 284 289 288 281 276 279 281 282 282 285 287 291 292 290 281 258 222 247 248 250 182 210 221 235 188 205 233 244 230 233 195 203 208 220 228 235 238 239 242 246 252 253 255 262 275 280 278 275 276 287 297 299 298 305 310 305 303 300 303 304 304
242 235 268 291 288 284 288 293 297 294 285 282 267 246 248 265 271 270 262 264 267 269 272 276 280 283 284 284 275 251 254 249 240 208 223 237 235 210 199 231 245 234 228 219 191 193 208 224 230 237 242 245 247 251 253 265 261 259 267 277 283 280 290 290 295 301 310 307 303 302 301 298 299 302
284 285 278 282 284 283 280 283 280 276 273 275 280 283 272 276 278 273 269 263 268 270 271 276 281 284 286 286 263 262 259 263 252 210 223 235 230 219 230 232 243 241 235 235 209 194 188 207 214 229 241 248 253 248 244 252 265 260 262 279 279 288 289 293 292 298 303 303 303 300 297 298 298 302
247 253 258 263 262 260 266 262 266 268 270 271 276 277 282 281 281 276 272 271 272 272 271 271 275 277 278 278 277 271 261 260 264 175 219 225 230 230 233 239 246 235 227 228 224 211 198 206 218 233 240 246 252 242 220 224 249 254 268 265 277 280 283 286 294 297 300 298 293 291 295 294 298 302
268 244 243 252 258 264 267 277 283 281 279 282 286 293 298 298 298 296 286 287 288 289 286 281 279 279 276 273 277 276 275 264 270 255 239 229 231 238 238 243 249 251 244 235 232 204 191 212 206 228 248 259 261 274 254 211 212 225 252 271 269 274 280 289 291 293 293 290 288 290 292 297 299 304
295 332 350 4 14 14 5 354 354 345 348 345 340 333 324 319 321 320 323 322 302 292 286 287 283 282 276 275 275 276 272 266 261 257 247 249 239 238 239 248 245 251 254 251 224 217 199 216 220 219 239 258 262 266 274 129 209 220 245 269 279 278 288 294 293 290 286 286 288 286 287 292 293 297
302 319 327 339 360 349 350 343 346 340 344 341 333 329 324 324 323 324 327 310 303 301 299 293 291 288 283 276 275 277 274 266 262 260 259 249 244 241 245 250 256 255 256 248 233 220 220 237 229 216 221 243 263 266 279 262 241 238 246 260 279 286 293 291 285 283 285 286 284 286 288 285 289 294
264 273 286 302 312 306 318 324 325 321 326 324 326 323 319 318 321 323 322 316 313 309 305 301 297 298 295 290 281 276 275 274 269 268 268 263 255 257 261 259 263 266 264 263 251 236 230 239 233 223 220 232 243 265 282 286 278 284 291 280 278 280 271 270 275 277 281 287 288 290 284 282 284 288
350 358 312 294 304 311 303 305 307 313 312 317 322 321 319 317 322 320 319 319 323 325 319 313 313 314 308 304 300 296 291 284 282 284 285 283 279 268 270 273 275 279 275 270 265 260 243 225 228 229 234 239 266 329 350 291 283 281 278 280 271 260 258 261 268 277 284 285 291 294 293 297 294 300
360 322 345 304 305 329 314 313 318 316 315 316 315 313 317 315 313 312 317 316 324 321 313 314 318 320 314 315 312 308 301 300 300 297 296 294 290 285 277 279 277 273 271 273 271 269 267 262 210 256 259 269 279 327 279 271 272 264 257 266 267 253 261 258 264 272 277 285 286 285 287 291 296 302
24 316 338 322 332 320 326 318 315 315 307 311 310 314 315 309 302 309 309 316 327 324 317 321 325 324 318 317 315 311 303 302 304 302 302 300 301 298 290 275 272 273 268 272 277 280 299 60 85 117 174 229 245 257 264 270 278 280 279 290 289 269 266 270 270 272 271 270 276 277 281 287 291 295
299 256 266 301 305 296 304 304 298 293 295 308 304 306 305 300 302 309 313 320 322 325 326 324 319 318 313 314 311 308 304 300 300 303 303 301 299 298 298 291 288 287 285 285 287 291 287 278 264 236 252 244 252 245 264 270 275 284 286 286 285 300 292 276 274 276 277 270 262 260 262 275 295 294
223 251 249 245 258 267 269 272 275 287 286 283 288 283 284 290 294 298 303 308 312 317 318 312 307 305 308 308 309 303 296 300 305 302 299 301 300 295 291 292 290 286 285 285 289 285 286 281 271 265 255 253 251 250 256 266 269 269 277 284 295 301 297 303 299 287 281 274 271 264 263 269 278 285
231 240 251 252 251 259 251 257 259 263 267 269 269 271 274 274 281 289 287 287 289 302 298 295 299 299 302 304 303 301 302 305 302 299 300 298 296 292 291 288 291 291 286 290 289 289 285 282 281 262 255 262 258 252 261 261 270 282 279 283 287 290 291 302 310 308 306 307 290 294 294 300 300 302